contact:dominique.lefevre@mio.osupytheas.fr, maurice.libes@osupytheas.fr, didier.mallarino@osupytheas.fr
Project:EMSO http://www.emso-fr.org/EMSO-France
Depth: 2436.0 m
Title:EMSO Ligure Ouest : Data MII capteur AQUADOPP
Date,Latitude,Longitude,X_East,Y_North,Z_Up,Amplitude_X,Amplitude_Y,Amplitude_Z,Batterie,SoundSpeed,Heading,Pitch,Roll,Pressure,TIS,Speed,Direction
, degrees North, degrees East, m.s-1, m.s-1,m.s-1, 1, 1, 1, Volt, m.s-1, degree, degree, degree, dbar, degree_C, m.s-1, degree
2023-01-08T00:04:03,42.805,6.029,-0.023,0.014,0.011,100.0,101.0,100.0,13.3,1505.2,327.9,-0.7,1.8,2471.158,13.29,0.026,301.3
2023-01-08T00:07:03,42.805,6.029,-0.005,0.003,-0.03,100.0,101.0,100.0,13.4,1505.2,333.0,-0.8,1.8,2471.138,13.29,0.005,301.0
2023-01-08T00:10:03,42.805,6.029,0.004,-0.002,0.014,100.0,101.0,101.0,13.4,1505.2,327.5,-0.7,1.7,2471.117,13.29,0.004,116.6
2023-01-08T00:13:03,42.805,6.029,-0.003,0.0,-0.018,100.0,99.0,101.0,13.4,1505.2,332.1,-0.7,1.8,2471.137,13.29,0.003,270.0
2023-01-08T00:16:03,42.805,6.029,-0.021,0.0,-0.028,101.0,100.0,101.0,13.4,1505.2,321.8,-0.8,1.8,2471.12,13.29,0.021,270.0
2023-01-08T00:19:03,42.805,6.029,-0.001,0.0,-0.004,101.0,101.0,100.0,13.4,1505.2,334.6,-0.8,1.8,2471.099,13.29,0.001,270.0
2023-01-08T00:22:03,42.805,6.029,-0.043,0.008,-0.022,100.0,101.0,100.0,13.4,1505.2,334.8,-0.8,1.8,2471.129,13.29,0.043,280.5
2023-01-08T00:25:03,42.805,6.029,0.014,-0.018,-0.03,99.0,103.0,100.0,13.4,1505.2,327.9,-0.8,1.9,2471.123,13.29,0.022,142.1
2023-01-08T00:28:03,42.805,6.029,-0.012,-0.003,-0.045,100.0,100.0,100.0,13.3,1505.2,334.6,-0.8,1.8,2471.117,13.29,0.012,256.0
2023-01-08T00:31:03,42.805,6.029,-0.014,-0.004,-0.019,100.0,100.0,101.0,13.4,1505.2,326.7,-0.8,1.9,2471.061,13.29,0.014,254.1
2023-01-08T00:34:03,42.805,6.029,-0.003,-0.002,-0.044,101.0,101.0,101.0,13.3,1505.2,336.9,-0.8,1.8,2471.074,13.29,0.003,236.3
2023-01-08T00:37:03,42.805,6.029,-0.011,-0.024,-0.042,100.0,101.0,100.0,13.4,1505.2,335.0,-0.7,1.8,2471.112,13.29,0.026,204.6
2023-01-08T00:40:03,42.805,6.029,0.021,-0.042,-0.054,103.0,97.0,100.0,13.4,1505.2,338.3,-0.8,1.8,2471.044,13.29,0.046,153.4
2023-01-08T00:43:03,42.805,6.029,0.007,-0.006,-0.015,98.0,102.0,101.0,13.4,1505.2,328.3,-0.8,1.8,2471.111,13.29,0.009,130.6
2023-01-08T00:46:03,42.805,6.029,-0.006,0.002,-0.03,101.0,101.0,99.0,13.4,1505.2,327.1,-0.7,1.8,2471.086,13.29,0.006,288.4
2023-01-08T00:49:03,42.805,6.029,-0.003,-0.008,-0.026,100.0,101.0,100.0,13.3,1505.2,323.2,-0.8,1.8,2471.045,13.29,0.008,200.6
2023-01-08T00:52:03,42.805,6.029,-0.016,0.008,-0.024,98.0,100.0,102.0,13.3,1505.2,330.4,-0.7,1.8,2471.072,13.29,0.017,296.6
2023-01-08T00:55:03,42.805,6.029,0.0,-0.002,-0.035,99.0,102.0,101.0,13.3,1505.2,321.0,-0.7,1.8,2471.098,13.29,0.002,180.0
2023-01-08T00:58:03,42.805,6.029,-0.004,0.004,0.01,100.0,100.0,100.0,13.3,1505.2,332.1,-0.8,1.8,2471.078,13.29,0.005,315.0
2023-01-08T01:04:03,42.805,6.029,0.039,-0.046,-0.048,102.0,102.0,102.0,13.4,1505.2,328.0,-0.7,1.8,2471.111,13.29,0.06,139.7
2023-01-08T01:07:03,42.805,6.029,0.028,-0.013,-0.014,101.0,102.0,102.0,13.3,1505.2,320.3,-0.7,1.8,2471.101,13.29,0.03,114.9
2023-01-08T01:10:03,42.805,6.029,0.036,-0.013,-0.013,100.0,100.0,101.0,13.4,1505.2,327.9,-0.8,1.8,2471.071,13.29,0.038,109.9
2023-01-08T01:13:03,42.805,6.029,-0.015,0.004,0.004,102.0,101.0,100.0,13.3,1505.2,327.0,-0.8,1.8,2471.09,13.29,0.015,284.9
2023-01-08T01:16:03,42.805,6.029,-0.001,-0.03,-0.044,100.0,101.0,100.0,13.4,1505.2,318.6,-0.8,1.8,2471.096,13.29,0.03,181.9
2023-01-08T01:19:03,42.805,6.029,-0.007,0.008,-0.009,101.0,100.0,99.0,13.4,1505.2,323.2,-0.8,1.8,2471.079,13.29,0.01,318.8
2023-01-08T01:22:03,42.805,6.029,-0.015,0.006,0.003,100.0,101.0,100.0,13.3,1505.2,334.6,-0.8,1.8,2471.071,13.29,0.016,291.8
2023-01-08T01:25:03,42.805,6.029,-0.015,0.025,0.019,100.0,100.0,100.0,13.4,1505.2,328.2,-0.8,1.8,2471.057,13.29,0.029,329.0
2023-01-08T01:28:03,42.805,6.029,-0.011,-0.008,-0.017,98.0,102.0,99.0,13.4,1505.2,330.2,-0.8,1.8,2471.078,13.29,0.013,234.0
2023-01-08T01:31:03,42.805,6.029,-0.005,-0.006,-0.003,97.0,100.0,100.0,13.4,1505.2,320.5,-0.8,1.8,2471.074,13.29,0.007,219.8
2023-01-08T01:34:03,42.805,6.029,-0.005,-0.02,0.01,102.0,101.0,102.0,13.3,1505.2,332.7,-0.7,1.8,2471.07,13.29,0.02,194.0
2023-01-08T01:37:03,42.805,6.029,0.037,-0.039,-0.034,100.0,100.0,101.0,13.4,1505.2,320.9,-0.8,1.8,2471.054,13.29,0.053,136.5
2023-01-08T01:40:03,42.805,6.029,0.003,0.014,0.006,99.0,101.0,100.0,13.4,1505.2,325.0,-0.8,1.8,2471.099,13.29,0.014,12.1
2023-01-08T01:43:03,42.805,6.029,0.015,0.003,-0.006,100.0,101.0,101.0,13.3,1505.2,320.4,-0.8,1.8,2471.054,13.29,0.015,78.7
2023-01-08T01:46:03,42.805,6.029,-0.025,0.007,-0.005,102.0,102.0,100.0,13.3,1505.2,328.4,-0.7,1.8,2471.062,13.29,0.025,285.6
2023-01-08T01:49:03,42.805,6.029,0.001,0.002,-0.034,99.0,100.0,101.0,13.4,1505.2,322.0,-0.7,1.8,2471.079,13.29,0.002,26.6
2023-01-08T01:52:03,42.805,6.029,-0.012,-0.007,-0.023,99.0,98.0,100.0,13.4,1505.2,323.5,-0.8,1.8,2471.059,13.29,0.013,239.7
2023-01-08T01:55:03,42.805,6.029,-0.028,-0.001,-0.017,102.0,99.0,100.0,13.4,1505.2,322.8,-0.8,1.8,2471.056,13.29,0.028,268.0
2023-01-08T01:58:03,42.805,6.029,0.013,0.021,0.01,99.0,100.0,100.0,13.4,1505.2,337.8,-0.8,1.8,2471.093,13.29,0.024,31.8
2023-01-08T02:04:03,42.805,6.029,-0.009,-0.002,-0.015,100.0,101.0,100.0,13.4,1505.2,329.9,-0.8,1.8,2471.075,13.29,0.009,257.5
2023-01-08T02:07:03,42.805,6.029,-0.007,0.016,0.013,100.0,98.0,101.0,13.4,1505.2,322.8,-0.8,1.8,2471.118,13.29,0.017,336.4
2023-01-08T02:10:03,42.805,6.029,-0.012,-0.006,-0.033,101.0,103.0,100.0,13.3,1505.2,331.7,-0.8,1.8,2471.119,13.29,0.013,243.4
2023-01-08T02:13:03,42.805,6.029,-0.006,-0.009,-0.029,100.0,102.0,99.0,13.3,1505.2,316.0,-0.8,1.8,2471.097,13.29,0.01,213.7
2023-01-08T02:16:03,42.805,6.029,-0.004,-0.003,-0.015,99.0,102.0,101.0,13.4,1505.2,332.5,-0.7,1.9,2471.091,13.29,0.005,233.1
2023-01-08T02:19:03,42.805,6.029,-0.006,-0.004,-0.038,101.0,102.0,100.0,13.3,1505.2,324.6,-0.7,1.8,2471.09,13.29,0.007,236.3
2023-01-08T02:22:03,42.805,6.029,0.006,0.018,0.012,100.0,101.0,100.0,13.3,1505.2,332.6,-0.7,1.8,2471.027,13.29,0.018,18.4
2023-01-08T02:25:03,42.805,6.029,0.006,0.024,0.042,99.0,101.0,100.0,13.3,1505.2,323.4,-0.8,1.8,2471.096,13.29,0.024,14.0
2023-01-08T02:28:03,42.805,6.029,0.002,-0.031,-0.041,101.0,101.0,100.0,13.3,1505.2,329.1,-0.7,1.9,2471.126,13.29,0.031,176.3
2023-01-08T02:31:03,42.805,6.029,-0.002,0.022,0.004,100.0,101.0,101.0,13.4,1505.2,318.6,-0.8,1.8,2471.107,13.29,0.022,354.8
2023-01-08T02:34:03,42.805,6.029,0.013,-0.022,-0.019,99.0,101.0,100.0,13.3,1505.2,325.3,-0.7,1.8,2471.099,13.29,0.025,149.4
2023-01-08T02:37:03,42.805,6.029,0.01,-0.012,-0.017,100.0,101.0,100.0,13.3,1505.2,328.6,-0.7,1.9,2471.071,13.29,0.015,140.2
2023-01-08T02:40:03,42.805,6.029,-0.036,0.026,0.013,100.0,101.0,100.0,13.4,1505.2,331.0,-0.8,1.8,2471.073,13.29,0.044,305.8
2023-01-08T02:43:03,42.805,6.029,0.0,0.0,-0.001,100.0,102.0,100.0,13.4,1505.2,328.6,-0.8,1.8,2471.082,13.29,0.0,0.0
2023-01-08T02:46:03,42.805,6.029,-0.02,0.005,-0.033,101.0,100.0,100.0,13.3,1505.2,337.1,-0.8,1.8,2471.031,13.29,0.02,284.0
2023-01-08T02:49:03,42.805,6.029,0.016,0.013,0.014,100.0,101.0,102.0,13.4,1505.2,330.9,-0.8,1.8,2471.102,13.29,0.02,50.9
2023-01-08T02:52:03,42.805,6.029,-0.013,0.0,-0.003,100.0,104.0,102.0,13.4,1505.2,329.4,-0.8,1.8,2471.072,13.29,0.013,270.0
2023-01-08T02:55:03,42.805,6.029,-0.008,0.022,0.007,99.0,99.0,101.0,13.4,1505.2,328.2,-0.8,1.8,2471.025,13.29,0.023,340.0
2023-01-08T02:58:03,42.805,6.029,-0.012,-0.001,-0.014,99.0,101.0,100.0,13.3,1505.2,318.8,-0.8,1.8,2471.059,13.29,0.012,265.2
2023-01-08T03:04:03,42.805,6.029,-0.002,0.02,0.024,100.0,100.0,100.0,13.4,1505.2,316.5,-0.8,1.8,2471.133,13.29,0.02,354.3
2023-01-08T03:07:03,42.805,6.029,-0.025,-0.009,0.005,100.0,100.0,102.0,13.4,1505.2,321.8,-0.8,1.8,2471.098,13.29,0.026,250.2
2023-01-08T03:10:03,42.805,6.029,0.005,-0.017,-0.011,100.0,99.0,100.0,13.4,1505.2,334.9,-0.8,1.8,2471.091,13.29,0.017,163.6
2023-01-08T03:13:03,42.805,6.029,0.008,-0.011,-0.009,98.0,101.0,100.0,13.3,1505.2,321.8,-0.8,1.8,2471.077,13.29,0.013,144.0
2023-01-08T03:16:03,42.805,6.029,-0.021,0.007,-0.004,99.0,100.0,99.0,13.4,1505.2,333.8,-0.8,1.8,2471.111,13.29,0.022,288.4
2023-01-08T03:19:03,42.805,6.029,-0.001,0.004,-0.006,100.0,100.0,100.0,13.3,1505.2,320.3,-0.8,1.8,2471.105,13.29,0.004,346.0
2023-01-08T03:22:03,42.805,6.029,0.0,0.011,-0.001,100.0,103.0,99.0,13.4,1505.2,324.9,-0.8,1.9,2471.107,13.29,0.011,0.0
2023-01-08T03:25:03,42.805,6.029,-0.019,0.02,0.012,100.0,98.0,101.0,13.3,1505.2,328.2,-0.8,1.8,2471.109,13.29,0.027,316.5
2023-01-08T03:28:03,42.805,6.029,-0.004,0.007,-0.001,99.0,100.0,100.0,13.4,1505.2,327.5,-0.8,1.8,2471.123,13.29,0.008,330.3
2023-01-08T03:31:03,42.805,6.029,-0.011,0.008,0.002,102.0,98.0,100.0,13.4,1505.2,336.9,-0.7,1.8,2471.101,13.29,0.013,306.0
2023-01-08T03:34:03,42.805,6.029,0.016,0.0,0.005,101.0,102.0,100.0,13.3,1505.2,318.8,-0.7,1.8,2471.116,13.3,0.016,90.0
2023-01-08T03:37:03,42.805,6.029,-0.011,-0.007,-0.044,101.0,99.0,101.0,13.4,1505.2,322.8,-0.8,1.8,2471.091,13.3,0.013,237.5
2023-01-08T03:40:03,42.805,6.029,0.001,-0.018,-0.026,102.0,98.0,100.0,13.4,1505.2,319.5,-0.8,1.8,2471.081,13.3,0.018,176.8
2023-01-08T03:43:03,42.805,6.029,0.009,-0.015,-0.018,100.0,100.0,101.0,13.4,1505.2,330.1,-0.8,1.8,2471.106,13.3,0.017,149.0
2023-01-08T03:46:03,42.805,6.029,-0.026,0.024,0.029,101.0,101.0,101.0,13.3,1505.2,322.9,-0.7,1.8,2471.107,13.3,0.035,312.7
2023-01-08T03:49:03,42.805,6.029,0.01,0.003,-0.003,100.0,100.0,100.0,13.4,1505.2,330.0,-0.7,1.8,2471.088,13.3,0.01,73.3
2023-01-08T03:52:03,42.805,6.029,0.01,-0.01,-0.025,100.0,99.0,100.0,13.3,1505.2,333.0,-0.7,1.8,2471.101,13.3,0.014,135.0
2023-01-08T03:55:03,42.805,6.029,0.018,-0.01,-0.004,100.0,99.0,100.0,13.4,1505.2,332.6,-0.8,1.8,2471.08,13.3,0.02,119.1
2023-01-08T03:58:03,42.805,6.029,0.015,0.011,0.029,102.0,101.0,100.0,13.3,1505.2,329.4,-0.7,1.8,2471.079,13.3,0.018,53.7
2023-01-08T04:04:03,42.805,6.029,-0.019,0.007,0.009,99.0,101.0,100.0,13.4,1505.2,330.3,-0.8,1.9,2471.164,13.29,0.02,290.2
2023-01-08T04:07:03,42.805,6.029,0.004,0.026,0.032,100.0,102.0,99.0,13.4,1505.2,333.4,-0.8,1.8,2471.147,13.29,0.026,8.7
2023-01-08T04:10:03,42.805,6.029,-0.01,0.004,-0.004,106.0,98.0,100.0,13.4,1505.2,334.1,-0.8,1.8,2471.136,13.29,0.01,291.8
2023-01-08T04:13:03,42.805,6.029,-0.003,-0.006,-0.009,102.0,100.0,100.0,13.4,1505.2,321.8,-0.8,1.8,2471.117,13.29,0.006,206.6
2023-01-08T04:16:03,42.805,6.029,-0.034,0.011,-0.007,101.0,100.0,100.0,13.4,1505.2,334.6,-0.7,1.8,2471.163,13.29,0.035,287.9
2023-01-08T04:19:03,42.805,6.029,-0.017,0.001,-0.038,100.0,99.0,100.0,13.4,1505.2,327.1,-0.8,1.8,2471.141,13.29,0.017,273.4
2023-01-08T04:22:03,42.805,6.029,-0.029,0.001,-0.056,101.0,100.0,101.0,13.4,1505.2,336.3,-0.8,1.8,2471.136,13.29,0.029,272.0
2023-01-08T04:25:03,42.805,6.029,-0.005,0.003,-0.017,100.0,100.0,101.0,13.4,1505.2,332.3,-0.8,1.8,2471.141,13.3,0.005,301.0
2023-01-08T04:28:03,42.805,6.029,-0.004,-0.009,-0.009,101.0,101.0,101.0,13.4,1505.2,332.6,-0.8,1.8,2471.111,13.29,0.009,204.0
2023-01-08T04:31:03,42.805,6.029,-0.004,-0.025,-0.044,101.0,99.0,99.0,13.4,1505.2,332.2,-0.8,1.8,2471.131,13.29,0.025,189.1
2023-01-08T04:34:03,42.805,6.029,-0.026,0.004,-0.013,101.0,101.0,100.0,13.3,1505.2,336.4,-0.8,1.8,2471.173,13.29,0.026,278.7
2023-01-08T04:37:03,42.805,6.029,-0.012,-0.017,-0.037,100.0,101.0,101.0,13.4,1505.2,318.8,-0.8,1.8,2471.152,13.3,0.02,215.2
2023-01-08T04:40:03,42.805,6.029,-0.033,0.015,0.003,101.0,100.0,100.0,13.4,1505.2,325.5,-0.8,1.8,2471.161,13.29,0.036,294.4
2023-01-08T04:43:03,42.805,6.029,-0.011,0.02,0.036,100.0,100.0,100.0,13.4,1505.2,335.4,-0.8,1.8,2471.157,13.29,0.022,331.2
2023-01-08T04:46:03,42.805,6.029,0.02,-0.022,-0.023,99.0,102.0,100.0,13.4,1505.2,323.4,-0.7,1.8,2471.175,13.3,0.029,137.7
2023-01-08T04:49:03,42.805,6.029,-0.019,0.008,0.017,99.0,100.0,101.0,13.3,1505.2,318.0,-0.8,1.8,2471.149,13.29,0.02,292.8
2023-01-08T04:52:03,42.805,6.029,-0.025,-0.013,-0.037,99.0,100.0,100.0,13.3,1505.2,322.5,-0.8,1.8,2471.169,13.3,0.028,242.5
2023-01-08T04:55:03,42.805,6.029,-0.02,0.016,0.0,99.0,102.0,100.0,13.4,1505.2,333.4,-0.8,1.8,2471.194,13.3,0.025,308.7
2023-01-08T04:58:03,42.805,6.029,-0.006,-0.014,-0.045,100.0,101.0,100.0,13.3,1505.2,331.5,-0.8,1.8,2471.115,13.3,0.015,203.2
2023-01-08T05:04:03,42.805,6.029,-0.01,-0.003,-0.018,100.0,101.0,100.0,13.3,1505.2,327.0,-0.8,1.8,2471.232,13.29,0.01,253.3
2023-01-08T05:07:03,42.805,6.029,-0.023,-0.003,-0.018,98.0,101.0,102.0,13.4,1505.2,324.8,-0.8,1.8,2471.17,13.29,0.023,262.6
2023-01-08T05:10:03,42.805,6.029,-0.038,0.006,-0.022,98.0,101.0,101.0,13.4,1505.2,329.1,-0.8,1.8,2471.222,13.29,0.038,279.0
2023-01-08T05:13:03,42.805,6.029,0.008,-0.012,-0.011,99.0,104.0,100.0,13.3,1505.2,327.5,-0.7,1.8,2471.212,13.29,0.014,146.3
2023-01-08T05:16:03,42.805,6.029,-0.041,0.024,0.005,101.0,101.0,101.0,13.3,1505.2,323.6,-0.7,1.8,2471.205,13.29,0.047,300.3
2023-01-08T05:19:03,42.805,6.029,-0.018,0.0,-0.012,100.0,100.0,100.0,13.4,1505.2,321.8,-0.8,1.8,2471.217,13.29,0.018,270.0
2023-01-08T05:22:03,42.805,6.029,-0.024,0.012,-0.011,100.0,100.0,101.0,13.4,1505.2,335.8,-0.8,1.8,2471.204,13.29,0.026,296.6
2023-01-08T05:25:03,42.805,6.029,-0.053,0.001,-0.027,100.0,98.0,101.0,13.4,1505.2,323.8,-0.8,1.8,2471.174,13.29,0.053,271.1
2023-01-08T05:28:03,42.805,6.029,-0.032,-0.011,-0.062,100.0,100.0,99.0,13.4,1505.2,329.9,-0.8,1.8,2471.212,13.29,0.033,251.0
2023-01-08T05:31:03,42.805,6.029,-0.013,-0.015,-0.042,100.0,99.0,100.0,13.4,1505.2,328.9,-0.8,1.8,2471.211,13.29,0.019,220.9
2023-01-08T05:34:03,42.805,6.029,-0.008,-0.004,-0.017,101.0,101.0,99.0,13.3,1505.2,318.8,-0.8,1.8,2471.176,13.29,0.008,243.4
2023-01-08T05:37:03,42.805,6.029,-0.007,0.003,-0.007,100.0,100.0,100.0,13.4,1505.2,319.0,-0.7,1.8,2471.212,13.29,0.007,293.2
2023-01-08T05:40:03,42.805,6.029,-0.023,-0.008,-0.017,100.0,100.0,100.0,13.4,1505.2,329.6,-0.8,1.8,2471.203,13.29,0.024,250.8
2023-01-08T05:43:03,42.805,6.029,-0.037,-0.024,-0.073,100.0,100.0,100.0,13.4,1505.2,333.0,-0.8,1.8,2471.246,13.29,0.044,237.0
2023-01-08T05:46:03,42.805,6.029,-0.038,0.011,-0.009,100.0,101.0,100.0,13.4,1505.2,322.7,-0.8,1.8,2471.231,13.29,0.039,286.1
2023-01-08T05:49:03,42.805,6.029,-0.013,0.027,0.035,100.0,100.0,101.0,13.4,1505.2,323.4,-0.8,1.8,2471.222,13.29,0.029,334.3
2023-01-08T05:52:03,42.805,6.029,0.003,-0.015,-0.044,98.0,102.0,101.0,13.4,1505.2,330.1,-0.8,1.8,2471.234,13.29,0.015,168.7
2023-01-08T05:55:03,42.805,6.029,-0.029,-0.029,-0.074,99.0,100.0,103.0,13.4,1505.2,330.8,-0.8,1.8,2471.236,13.29,0.041,225.0
2023-01-08T05:58:03,42.805,6.029,-0.024,0.006,-0.006,100.0,100.0,100.0,13.3,1505.2,329.6,-0.8,1.8,2471.218,13.29,0.024,284.0
2023-01-08T06:04:03,42.805,6.029,-0.019,0.003,-0.004,99.0,101.0,100.0,13.4,1505.2,321.7,-0.7,1.8,2471.288,13.29,0.019,279.0
2023-01-08T06:07:03,42.805,6.029,-0.044,0.014,0.019,100.0,99.0,100.0,13.3,1505.2,318.1,-0.8,1.8,2471.266,13.29,0.046,287.6
2023-01-08T06:10:03,42.805,6.029,0.006,-0.01,-0.017,100.0,99.0,100.0,13.4,1505.2,333.4,-0.8,1.8,2471.264,13.29,0.011,149.0
2023-01-08T06:13:03,42.805,6.029,-0.01,0.002,-0.015,100.0,100.0,101.0,13.4,1505.2,322.4,-0.8,1.8,2471.259,13.29,0.01,281.3
2023-01-08T06:16:03,42.805,6.029,-0.005,-0.015,-0.021,98.0,103.0,99.0,13.4,1505.2,335.8,-0.8,1.8,2471.28,13.29,0.015,198.4
2023-01-08T06:19:03,42.805,6.029,-0.008,0.008,0.005,97.0,101.0,101.0,13.3,1505.2,325.2,-0.7,1.8,2471.26,13.29,0.011,315.0
2023-01-08T06:22:03,42.805,6.029,-0.006,0.009,-0.006,98.0,100.0,102.0,13.4,1505.2,337.0,-0.8,1.8,2471.256,13.29,0.01,326.3
2023-01-08T06:25:03,42.805,6.029,-0.016,-0.006,-0.006,99.0,100.0,102.0,13.4,1505.2,320.0,-0.8,1.8,2471.263,13.29,0.017,249.4
2023-01-08T06:28:03,42.805,6.029,-0.026,0.016,-0.002,100.0,101.0,100.0,13.3,1505.2,317.6,-0.8,1.8,2471.25,13.29,0.03,301.6
2023-01-08T06:31:03,42.805,6.029,-0.011,-0.015,-0.03,99.0,103.0,99.0,13.4,1505.2,318.4,-0.8,1.8,2471.3,13.29,0.018,216.3
2023-01-08T06:34:03,42.805,6.029,-0.018,0.005,-0.009,99.0,103.0,98.0,13.3,1505.2,325.8,-0.8,1.8,2471.272,13.29,0.018,285.5
2023-01-08T06:37:03,42.805,6.029,-0.028,0.0,0.0,99.0,101.0,101.0,13.4,1505.2,337.7,-0.8,1.8,2471.258,13.29,0.028,270.0
2023-01-08T06:40:03,42.805,6.029,0.006,0.003,-0.016,101.0,101.0,100.0,13.4,1505.2,317.1,-0.8,1.8,2471.273,13.29,0.006,63.4
2023-01-08T06:43:03,42.805,6.029,-0.01,0.0,-0.013,100.0,102.0,100.0,13.4,1505.2,324.6,-0.8,1.8,2471.255,13.29,0.01,270.0
2023-01-08T06:46:03,42.805,6.029,-0.032,0.011,-0.023,100.0,101.0,101.0,13.3,1505.2,337.8,-0.8,1.8,2471.266,13.29,0.033,289.0
2023-01-08T06:49:03,42.805,6.029,0.005,0.045,0.064,102.0,100.0,99.0,13.3,1505.2,336.5,-0.8,1.8,2471.257,13.29,0.045,6.3
2023-01-08T06:52:03,42.805,6.029,-0.003,-0.008,-0.031,99.0,100.0,100.0,13.4,1505.2,319.7,-0.7,1.8,2471.266,13.29,0.008,200.6
2023-01-08T06:55:03,42.805,6.029,-0.004,-0.005,-0.021,100.0,99.0,99.0,13.4,1505.2,324.6,-0.8,1.8,2471.281,13.29,0.006,218.7
2023-01-08T06:58:03,42.805,6.029,-0.01,0.011,0.003,100.0,101.0,100.0,13.4,1505.2,322.3,-0.8,1.8,2471.288,13.29,0.014,317.7
2023-01-08T07:04:03,42.805,6.029,-0.001,-0.004,-0.019,99.0,100.0,101.0,13.3,1505.2,323.5,-0.7,1.8,2471.329,13.29,0.004,194.0
2023-01-08T07:07:03,42.805,6.029,0.005,-0.001,-0.013,101.0,101.0,99.0,13.4,1505.2,328.7,-0.8,1.8,2471.346,13.29,0.005,101.3
2023-01-08T07:10:03,42.805,6.029,0.005,-0.013,0.0,98.0,104.0,101.0,13.4,1505.2,323.4,-0.7,1.8,2471.351,13.29,0.013,159.0
2023-01-08T07:13:03,42.805,6.029,-0.024,-0.002,-0.011,101.0,99.0,100.0,13.4,1505.2,320.4,-0.8,1.8,2471.29,13.29,0.024,265.2
2023-01-08T07:16:03,42.805,6.029,-0.011,-0.012,-0.029,101.0,100.0,101.0,13.3,1505.2,329.3,-0.7,1.8,2471.289,13.29,0.016,222.5
2023-01-08T07:19:03,42.805,6.029,-0.042,0.016,-0.016,100.0,99.0,102.0,13.4,1505.2,330.7,-0.7,1.8,2471.326,13.29,0.044,290.9
2023-01-08T07:22:03,42.805,6.029,-0.013,-0.004,-0.028,98.0,102.0,102.0,13.4,1505.2,339.1,-0.8,1.8,2471.339,13.29,0.013,252.9
2023-01-08T07:25:03,42.805,6.029,-0.057,-0.002,-0.06,98.0,102.0,101.0,13.3,1505.2,323.8,-0.7,1.8,2471.327,13.29,0.057,268.0
2023-01-08T07:28:03,42.805,6.029,-0.014,0.004,0.0,99.0,101.0,101.0,13.3,1505.2,326.5,-0.8,1.8,2471.324,13.29,0.014,285.9
2023-01-08T07:31:03,42.805,6.029,-0.006,0.004,-0.01,100.0,101.0,100.0,13.4,1505.2,331.2,-0.8,1.8,2471.28,13.29,0.007,303.7
2023-01-08T07:34:03,42.805,6.029,-0.003,-0.022,-0.007,100.0,99.0,100.0,13.3,1505.2,320.8,-0.8,1.8,2471.333,13.29,0.022,187.8
2023-01-08T07:37:03,42.805,6.029,-0.039,0.008,-0.028,99.0,99.0,100.0,13.3,1505.2,326.7,-0.8,1.8,2471.294,13.29,0.039,281.6
2023-01-08T07:40:03,42.805,6.029,-0.025,0.0,-0.047,99.0,101.0,100.0,13.4,1505.2,330.0,-0.8,1.8,2471.324,13.29,0.025,270.0
2023-01-08T07:43:03,42.805,6.029,-0.051,0.005,0.002,98.0,103.0,100.0,13.3,1505.2,321.3,-0.7,1.8,2471.341,13.29,0.051,275.6
2023-01-08T07:46:03,42.805,6.029,-0.026,0.007,0.011,100.0,100.0,100.0,13.4,1505.2,334.5,-0.8,1.8,2471.282,13.29,0.026,285.1
2023-01-08T07:49:03,42.805,6.029,-0.033,-0.004,-0.009,101.0,101.0,99.0,13.4,1505.2,324.2,-0.8,1.8,2471.297,13.29,0.033,263.1
2023-01-08T07:52:03,42.805,6.029,0.0,-0.012,-0.03,102.0,97.0,100.0,13.4,1505.2,332.3,-0.7,1.8,2471.304,13.29,0.012,180.0
2023-01-08T07:55:03,42.805,6.029,-0.003,-0.007,-0.008,102.0,101.0,99.0,13.3,1505.2,328.5,-0.7,1.8,2471.327,13.29,0.007,203.2
2023-01-08T07:58:03,42.805,6.029,-0.042,0.006,-0.033,99.0,100.0,101.0,13.4,1505.2,327.0,-0.7,1.9,2471.28,13.29,0.042,278.1
2023-01-08T08:04:03,42.805,6.029,0.0,-0.003,0.01,98.0,101.0,101.0,13.3,1505.2,324.5,-0.8,1.8,2471.36,13.29,0.003,180.0
2023-01-08T08:07:03,42.805,6.029,-0.031,-0.004,0.003,99.0,102.0,100.0,13.4,1505.2,326.7,-0.7,1.8,2471.339,13.29,0.031,262.7
2023-01-08T08:10:03,42.805,6.029,-0.02,0.033,0.027,100.0,101.0,100.0,13.4,1505.2,337.7,-0.7,1.8,2471.377,13.29,0.038,328.8
2023-01-08T08:13:03,42.805,6.029,-0.015,-0.017,-0.038,99.0,101.0,101.0,13.4,1505.2,318.5,-0.8,1.8,2471.362,13.29,0.022,221.4
2023-01-08T08:16:03,42.805,6.029,-0.023,-0.003,-0.024,102.0,103.0,100.0,13.4,1505.2,329.8,-0.7,1.8,2471.356,13.29,0.023,262.6
2023-01-08T08:19:03,42.805,6.029,0.021,-0.004,0.006,100.0,101.0,101.0,13.4,1505.2,329.4,-0.7,1.8,2471.341,13.29,0.021,100.8
2023-01-08T08:22:03,42.805,6.029,0.0,0.023,0.011,102.0,101.0,101.0,13.4,1505.2,325.8,-0.8,1.8,2471.343,13.29,0.023,0.0
2023-01-08T08:25:03,42.805,6.029,-0.033,0.036,-0.006,101.0,99.0,103.0,13.3,1505.2,326.3,-0.7,1.8,2471.324,13.29,0.048,317.5
2023-01-08T08:28:03,42.805,6.029,0.021,-0.002,-0.032,101.0,100.0,102.0,13.4,1505.2,325.3,-0.7,1.8,2471.329,13.29,0.021,95.4
2023-01-08T08:31:03,42.805,6.029,0.001,0.016,-0.011,100.0,101.0,102.0,13.4,1505.2,331.7,-0.8,1.8,2471.322,13.29,0.016,3.6
2023-01-08T08:34:03,42.805,6.029,-0.008,0.018,0.009,99.0,101.0,102.0,13.4,1505.2,335.7,-0.8,1.8,2471.307,13.29,0.019,336.0
2023-01-08T08:37:03,42.805,6.029,-0.018,0.013,-0.004,99.0,100.0,103.0,13.4,1505.2,324.1,-0.8,1.8,2471.339,13.29,0.022,305.8
2023-01-08T08:40:03,42.805,6.029,-0.017,0.006,0.0,100.0,100.0,102.0,13.3,1505.2,321.8,-0.8,1.8,2471.326,13.29,0.018,289.4
2023-01-08T08:43:03,42.805,6.029,-0.03,0.029,0.021,99.0,101.0,101.0,13.4,1505.2,320.1,-0.8,1.8,2471.323,13.29,0.041,314.0
2023-01-08T08:46:03,42.805,6.029,-0.029,-0.002,-0.015,100.0,100.0,100.0,13.3,1505.2,322.7,-0.8,1.8,2471.304,13.29,0.029,266.1
2023-01-08T08:49:03,42.805,6.029,-0.008,0.0,0.007,103.0,100.0,99.0,13.4,1505.2,330.3,-0.7,1.8,2471.32,13.29,0.008,270.0
2023-01-08T08:52:03,42.805,6.029,-0.012,0.027,0.022,100.0,100.0,101.0,13.4,1505.2,333.4,-0.7,1.8,2471.297,13.29,0.029,336.0
2023-01-08T08:55:03,42.805,6.029,-0.01,-0.006,-0.012,100.0,101.0,99.0,13.4,1505.2,321.7,-0.8,1.8,2471.318,13.29,0.011,239.0
2023-01-08T08:58:03,42.805,6.029,-0.024,0.003,-0.035,100.0,101.0,99.0,13.3,1505.2,326.3,-0.8,1.8,2471.32,13.29,0.024,277.1
2023-01-08T09:04:03,42.805,6.029,-0.035,0.021,-0.007,100.0,100.0,101.0,13.3,1505.2,332.2,-0.8,1.8,2471.359,13.29,0.04,301.0
2023-01-08T09:07:03,42.805,6.029,0.02,-0.008,-0.008,100.0,102.0,100.0,13.4,1505.2,331.9,-0.8,1.8,2471.391,13.29,0.021,111.8
2023-01-08T09:10:03,42.805,6.029,-0.018,0.009,-0.005,100.0,101.0,102.0,13.3,1505.2,321.6,-0.8,1.8,2471.338,13.29,0.02,296.6
2023-01-08T09:13:03,42.805,6.029,-0.028,0.008,-0.016,98.0,101.0,103.0,13.4,1505.2,321.0,-0.8,1.8,2471.323,13.29,0.029,285.9
2023-01-08T09:16:03,42.805,6.029,-0.025,-0.003,-0.035,100.0,99.0,101.0,13.4,1505.2,320.0,-0.8,1.8,2471.326,13.29,0.025,263.2
2023-01-08T09:19:03,42.805,6.029,-0.059,0.002,-0.014,102.0,100.0,100.0,13.3,1505.2,320.8,-0.7,1.8,2471.331,13.29,0.059,271.9
2023-01-08T09:22:03,42.805,6.029,-0.003,-0.003,-0.004,100.0,100.0,101.0,13.4,1505.2,321.3,-0.8,1.8,2471.302,13.29,0.004,225.0
2023-01-08T09:25:03,42.805,6.029,-0.018,0.014,-0.007,100.0,101.0,102.0,13.4,1505.2,331.8,-0.8,1.8,2471.309,13.29,0.022,307.9
2023-01-08T09:28:03,42.805,6.029,0.006,0.006,-0.024,101.0,102.0,101.0,13.4,1505.2,321.8,-0.8,1.8,2471.315,13.29,0.008,45.0
2023-01-08T09:31:03,42.805,6.029,-0.045,0.018,-0.035,102.0,101.0,102.0,13.4,1505.2,326.1,-0.8,1.8,2471.304,13.29,0.048,291.8
2023-01-08T09:34:03,42.805,6.029,-0.014,0.032,0.018,100.0,100.0,100.0,13.4,1505.2,324.9,-0.8,1.8,2471.292,13.29,0.034,336.4
2023-01-08T09:37:03,42.805,6.029,-0.024,0.001,-0.017,100.0,99.0,102.0,13.3,1505.2,324.7,-0.8,1.8,2471.266,13.29,0.024,272.4
2023-01-08T09:40:03,42.805,6.029,-0.031,-0.012,-0.046,99.0,101.0,100.0,13.4,1505.2,318.9,-0.7,1.8,2471.277,13.29,0.033,248.8
2023-01-08T09:43:03,42.805,6.029,-0.052,0.011,-0.035,101.0,102.0,99.0,13.3,1505.2,327.0,-0.8,1.8,2471.334,13.29,0.053,281.9
2023-01-08T09:46:03,42.805,6.029,-0.011,-0.004,-0.022,100.0,100.0,100.0,13.3,1505.2,319.3,-0.8,1.8,2471.288,13.29,0.011,250.0
2023-01-08T09:49:02,42.805,6.029,-0.023,0.015,-0.012,99.0,99.0,100.0,13.4,1505.2,317.6,-0.7,1.8,2471.307,13.29,0.027,303.1
2023-01-08T09:52:02,42.805,6.029,-0.004,0.007,-0.031,101.0,101.0,99.0,13.3,1505.2,335.0,-0.8,1.8,2471.268,13.29,0.008,330.3
2023-01-08T09:55:03,42.805,6.029,-0.044,-0.012,-0.066,100.0,101.0,103.0,13.3,1505.2,324.8,-0.8,1.8,2471.267,13.29,0.045,254.7
2023-01-08T09:58:03,42.805,6.029,0.005,-0.007,-0.018,99.0,100.0,100.0,13.4,1505.2,320.9,-0.8,1.8,2471.29,13.29,0.008,144.5